Theta_e
327 322 318 315 314 310 310 302 294 292 285 285 281 282 288 291 290 291 292 292 293 295 296 297 296 298 298 296 297 300 304 293 295 287 292 296 309 322 322 329 330 337 340 343 346 345 346 347 351 351 350 350 350 350 351 350 349 349 349 349 349 348 348 347 347 347 347 348 348 348 348 349 348 348 347 347 346 346 346 346 345 344 343 343 342 341 339 339 337 337 336 337 338 337 337 338 338
322 319 314 314 311 311 305 297 289 283 282 283 286 284 288 289 292 290 291 291 293 297 295 301 303 304 304 304 304 301 301 306 307 297 309 314 319 317 321 332 335 339 340 345 348 345 345 347 348 351 350 350 349 351 350 350 350 349 349 349 348 348 347 346 346 346 346 347 347 347 347 347 348 347 347 347 346 346 346 345 344 343 343 342 342 340 338 337 336 335 336 337 337 337 337 337 337
320 316 313 311 309 306 301 295 292 280 282 281 282 285 288 291 291 289 289 293 295 295 295 297 296 297 299 300 301 298 298 307 311 311 313 317 315 320 321 325 336 339 343 347 348 346 344 345 345 350 349 350 349 351 350 350 349 349 349 348 348 347 346 346 346 346 346 347 347 346 346 347 347 347 346 346 346 345 345 343 343 343 342 342 342 340 337 336 335 334 335 337 336 336 336 337 338
313 315 313 307 307 299 296 289 284 283 283 280 282 287 289 288 290 290 291 290 292 293 295 297 297 298 300 299 300 300 299 307 314 312 312 315 312 315 321 325 336 341 344 347 348 346 344 344 346 350 350 349 350 349 350 350 349 349 349 348 347 347 346 346 346 346 346 346 346 346 346 346 347 347 346 346 345 345 344 343 342 342 342 341 341 339 336 334 334 333 335 336 335 334 335 336 337
312 317 309 306 302 301 291 288 283 280 282 281 283 284 287 287 290 289 291 291 292 293 295 295 296 298 300 300 299 297 300 302 303 315 313 313 316 321 324 326 338 345 345 347 347 345 343 343 345 348 349 348 349 350 350 349 349 349 349 349 347 346 346 346 346 346 346 346 346 346 345 346 346 346 345 344 344 344 342 342 342 341 341 341 340 338 335 333 331 332 334 335 334 334 334 335 336
309 310 310 309 304 301 292 289 288 285 284 284 284 287 287 289 290 290 292 294 294 293 293 294 296 297 301 305 305 305 311 302 310 314 315 317 323 325 326 325 340 344 345 347 346 344 342 342 344 347 348 349 348 349 349 349 349 349 349 348 347 346 346 345 346 346 346 346 346 345 346 346 346 345 345 344 343 342 342 342 341 341 340 339 339 337 335 332 330 331 332 333 333 333 333 334 335
312 302 301 302 298 297 291 284 285 283 291 286 287 288 291 289 291 291 294 295 296 295 294 299 299 299 299 303 302 312 313 314 315 317 317 321 322 326 327 327 340 342 343 346 346 343 342 342 347 349 349 349 347 348 347 349 349 349 348 347 347 346 346 346 346 346 346 346 346 346 345 345 344 344 343 343 342 342 342 341 341 340 339 338 337 336 334 331 329 330 331 332 333 333 333 333 335
309 306 299 294 290 289 286 285 286 283 290 288 289 290 290 291 289 291 292 292 293 294 296 298 293 295 297 303 298 310 308 315 317 317 320 320 324 327 327 331 339 340 343 345 346 343 343 341 346 348 349 348 347 348 348 349 348 348 349 347 347 347 347 346 346 346 346 346 346 345 345 344 344 343 343 343 342 342 341 341 340 339 338 337 336 334 332 329 327 328 329 330 331 332 332 332 335
306 303 297 294 288 286 284 286 288 287 289 290 290 290 301 291 290 291 292 292 294 292 294 295 292 294 295 302 300 304 304 306 306 315 321 323 325 326 330 331 336 337 342 344 345 345 341 339 344 347 347 348 348 348 347 347 348 348 347 347 347 347 346 346 346 346 346 346 346 346 345 344 344 343 343 342 342 341 341 341 340 338 338 337 335 334 331 328 327 327 329 329 331 331 331 332 333
302 299 292 291 287 287 283 286 285 290 290 291 291 294 293 291 292 293 292 293 294 294 296 294 292 294 296 300 298 302 304 303 304 319 317 323 323 328 333 333 334 338 341 344 345 346 343 342 341 344 346 348 348 347 346 346 348 348 347 347 347 346 346 346 346 347 346 346 346 345 345 344 343 342 342 342 342 342 341 341 339 338 336 336 335 333 330 326 324 326 327 328 331 330 331 331 331
296 293 293 287 284 282 285 285 283 289 292 289 291 291 291 291 292 291 292 293 292 294 296 296 299 297 295 296 296 301 301 299 309 314 314 321 324 327 330 332 338 341 342 344 345 346 345 342 340 340 342 344 346 347 345 343 345 348 348 347 347 347 346 346 345 346 346 346 345 345 345 344 343 343 342 342 341 341 341 339 338 337 336 336 334 331 329 326 323 324 326 329 329 329 329 330 329
294 291 289 283 284 285 283 286 288 288 288 290 294 293 292 293 292 293 293 294 294 294 295 295 298 295 295 293 296 299 298 303 303 305 315 321 324 325 328 331 335 338 340 342 343 344 344 342 343 341 338 340 342 345 344 344 345 347 347 348 347 347 346 345 346 345 346 345 345 344 344 343 343 342 342 342 341 341 340 338 337 336 336 335 333 331 330 328 324 325 327 327 327 327 327 327 326
291 291 287 287 287 284 285 285 287 290 286 289 292 295 292 294 294 291 291 291 291 293 295 295 297 296 293 294 295 297 302 303 302 303 318 321 322 324 326 327 328 328 329 333 336 337 340 343 343 342 339 335 336 338 339 341 341 344 346 346 347 346 346 346 346 345 345 345 344 344 344 343 342 342 342 341 341 341 339 337 337 336 335 334 333 331 330 328 325 323 324 325 324 324 325 325 324
291 289 286 288 282 284 285 285 284 288 287 289 290 291 293 294 294 290 292 294 293 293 296 296 298 295 295 294 296 295 295 300 300 314 318 320 320 321 320 320 319 319 320 321 323 326 327 330 337 342 341 342 341 335 333 337 340 342 342 342 343 344 344 345 345 344 345 344 343 341 340 339 340 341 341 341 340 339 338 337 336 335 335 334 332 331 329 328 326 324 321 321 321 320 320 322 322
298 290 286 283 283 284 284 286 289 284 288 289 295 294 294 296 291 291 292 291 295 295 296 297 298 296 292 295 292 295 297 302 305 316 318 314 312 313 314 316 317 317 317 318 318 317 318 321 326 330 341 342 341 340 339 338 335 337 338 337 339 341 342 341 341 342 340 340 339 337 336 335 334 335 335 337 338 336 335 333 336 335 334 333 332 330 329 328 326 324 321 320 319 320 320 319 318
295 291 285 285 285 285 287 287 284 285 288 289 292 292 293 296 293 296 294 295 295 297 296 297 298 296 296 295 295 296 299 303 309 315 313 310 309 310 312 313 314 315 315 315 316 316 316 318 322 325 326 333 339 340 340 339 331 331 335 336 337 338 337 338 338 337 333 332 331 331 329 330 329 329 328 332 331 333 331 330 333 335 333 332 331 331 330 328 328 326 322 320 319 320 322 322 320
295 290 285 280 286 286 287 287 287 288 287 290 290 294 293 294 295 295 295 295 296 296 295 296 297 298 296 297 298 301 303 308 315 313 310 307 307 307 308 311 312 314 314 314 314 314 314 315 318 319 320 322 327 337 339 339 336 330 331 330 330 331 333 333 334 328 324 324 325 324 325 329 327 328 330 331 325 330 324 326 331 334 333 332 331 331 330 329 328 326 324 320 321 320 317 316 318
292 286 282 284 282 285 287 288 289 288 290 291 294 292 292 292 295 297 294 296 293 294 295 295 299 298 298 299 300 302 304 312 312 310 305 304 303 303 305 305 308 309 310 311 313 314 314 315 316 317 319 320 321 329 338 340 337 333 338 336 333 329 328 326 329 331 329 329 323 327 331 329 327 328 330 329 330 328 327 324 326 331 334 332 331 331 330 329 328 326 325 323 322 319 314 306 307
289 284 282 285 283 289 289 287 290 291 292 291 291 290 292 293 293 296 294 291 294 295 295 295 296 299 301 300 301 302 304 305 307 305 304 303 302 303 302 302 304 307 309 309 311 312 313 313 314 316 317 318 319 322 332 339 338 337 338 337 334 329 329 331 332 330 332 331 329 331 330 329 325 327 331 331 330 324 328 323 325 329 332 330 330 331 330 329 327 326 325 323 320 316 308 306 306
291 285 286 283 287 288 288 289 291 291 293 292 293 292 292 294 294 295 295 290 292 293 293 294 295 296 298 299 300 300 302 302 302 303 302 301 301 302 301 302 302 301 304 306 308 311 311 312 313 315 316 318 319 319 325 335 339 338 339 338 335 333 333 334 334 333 332 331 331 332 332 330 326 326 327 325 326 329 326 322 324 324 325 325 324 325 326 327 326 324 323 320 315 310 308 308 308
293 286 282 291 288 291 294 290 290 290 292 291 291 293 293 294 292 295 291 292 291 291 292 295 296 296 298 298 299 299 301 301 300 301 301 300 300 301 302 302 302 302 302 304 305 307 309 311 312 314 316 318 319 318 320 328 336 338 338 337 336 334 333 333 332 332 333 333 332 332 333 331 330 331 330 330 330 329 328 328 328 328 327 324 321 320 318 316 314 312 312 311 309 310 309 308 309
289 291 289 289 288 293 294 291 292 291 290 292 291 293 294 295 295 292 292 291 287 289 291 295 295 299 299 298 298 298 299 300 299 299 299 299 300 300 301 301 301 300 302 304 305 306 307 309 310 313 316 319 321 318 323 327 331 337 337 336 335 333 332 330 329 329 330 330 331 331 332 332 332 332 331 331 329 329 329 328 328 328 325 324 324 322 318 315 313 312 311 310 309 309 308 307 307
293 292 290 289 289 294 293 292 293 290 292 291 291 294 294 294 294 291 291 293 291 293 294 294 296 299 299 299 298 298 298 298 298 298 298 298 298 300 301 301 302 305 304 303 304 305 307 307 309 313 318 321 323 327 328 329 329 330 331 332 329 328 328 326 326 326 326 327 328 327 329 330 332 331 331 329 328 328 327 327 327 327 326 325 324 324 319 315 313 312 311 310 310 310 309 307 307
289 292 291 295 291 293 293 296 292 289 292 291 291 294 295 293 294 293 292 293 295 294 296 296 298 298 299 298 298 299 298 298 297 298 298 298 298 299 300 303 306 308 306 306 306 306 309 311 313 315 321 323 326 327 327 326 326 325 324 323 324 322 323 323 323 323 323 323 323 326 325 327 326 328 327 326 326 327 326 326 326 326 325 325 324 323 318 315 314 312 311 310 310 310 308 307 307
292 294 292 293 292 291 293 292 290 289 292 293 293 294 294 292 294 292 293 293 295 295 296 297 297 297 296 298 298 297 297 296 297 296 297 297 297 299 298 303 307 308 306 307 308 309 311 312 313 320 323 325 325 325 323 322 322 321 321 320 319 319 320 319 320 320 321 321 321 321 322 323 323 323 323 324 324 323 322 322 322 322 322 322 322 320 318 314 312 310 308 308 308 307 307 306 305
293 295 292 292 294 292 292 294 292 291 294 292 294 292 291 291 293 293 292 294 294 294 295 296 296 295 295 297 297 297 297 296 295 296 297 297 297 297 299 304 305 306 306 307 308 309 310 311 313 315 318 320 320 320 319 319 319 317 317 317 317 315 316 316 318 318 319 319 319 319 320 321 321 320 319 319 319 318 318 318 318 318 318 319 319 317 315 312 308 305 304 304 304 304 303 303 304
292 292 292 293 294 292 294 294 294 292 293 292 293 292 293 292 294 292 293 294 293 294 294 294 295 294 294 295 295 295 296 295 296 296 296 296 296 296 300 305 305 305 306 306 307 308 310 310 311 312 315 315 317 317 316 316 315 314 313 314 314 314 315 314 315 316 317 317 317 318 318 318 319 319 318 317 316 316 315 314 313 313 312 312 312 309 307 305 303 303 303 302 302 302 302 302 303
292 292 293 294 291 292 291 291 292 293 295 291 293 292 291 292 293 291 293 293 294 294 292 293 293 293 293 294 294 294 295 294 294 295 296 296 296 300 302 304 305 305 305 306 307 308 309 309 309 310 311 312 312 312 312 312 311 311 311 310 311 312 313 313 311 311 312 315 316 316 316 315 315 315 315 314 314 313 312 311 310 309 307 307 306 305 303 302 302 301 302 302 302 302 301 301 302
293 294 295 291 289 295 292 293 292 292 294 292 293 293 291 291 290 290 291 294 293 293 292 292 292 292 292 292 293 293 293 293 293 294 294 297 300 302 303 304 304 304 305 306 307 307 307 308 308 308 309 309 309 309 309 309 309 309 309 309 309 309 310 310 310 309 309 311 313 314 313 313 313 312 312 311 310 310 309 307 306 305 304 303 302 302 302 302 301 301 301 301 301 301 301 301 301
295 292 291 291 288 289 293 292 291 292 294 290 294 287 287 289 293 290 293 294 292 292 291 292 291 291 291 291 292 292 293 293 293 294 294 295 298 302 303 303 304 304 305 305 305 305 307 308 308 308 307 307 307 308 308 306 306 307 307 308 308 308 307 308 307 306 306 306 307 308 310 310 311 311 310 309 308 307 306 304 303 301 300 299 299 298 299 299 298 299 299 299 300 299 299 299 299
293 291 288 287 287 285 291 291 290 292 292 290 294 288 287 290 289 291 293 294 294 293 292 292 291 291 291 291 291 292 292 292 294 294 294 294 298 302 303 303 303 303 304 304 304 304 305 306 306 305 306 305 305 306 306 305 305 304 303 303 304 306 305 304 304 305 305 305 304 304 306 306 307 308 308 308 306 305 304 303 302 301 300 300 299 300 299 297 297 298 300 299 299 298 298 298 298
288 289 285 281 286 283 288 291 291 293 293 292 294 286 290 293 293 291 293 293 293 293 292 292 291 292 291 290 291 291 291 292 293 294 294 295 298 300 301 302 303 303 303 303 303 305 304 304 304 304 304 304 303 303 303 303 303 303 303 302 301 301 301 301 302 302 303 303 303 302 303 303 303 304 304 304 304 303 302 301 300 300 299 299 298 298 297 296 295 295 295 296 297 297 297 297 296
283 288 282 285 285 283 289 292 289 292 291 292 293 289 286 292 289 290 292 293 292 291 291 291 291 291 291 291 291 290 291 292 292 293 293 294 297 299 301 302 304 304 302 303 303 303 303 303 303 302 302 302 301 300 300 300 301 300 300 301 301 300 299 298 299 299 299 300 299 299 299 299 300 300 300 301 301 300 300 299 299 298 298 296 296 295 295 295 294 293 292 293 297 297 296 295 294
285 283 286 281 286 285 287 289 291 290 291 290 290 289 289 291 288 291 291 292 291 291 292 292 292 292 292 291 290 290 291 291 292 292 293 293 296 298 300 302 303 304 303 303 304 303 302 302 301 301 300 301 301 300 299 298 299 298 298 297 299 298 297 297 297 297 296 297 296 296 296 296 297 298 298 298 298 298 297 297 296 296 296 294 292 291 291 291 291 292 291 291 294 296 294 293 291
282 286 285 286 285 285 287 288 293 290 291 289 289 287 290 293 292 290 292 291 291 292 293 292 292 292 291 291 290 290 290 291 292 292 292 293 294 298 300 301 302 302 303 303 302 302 301 301 301 300 299 299 298 298 297 297 297 297 297 296 295 295 294 294 295 294 295 295 295 295 294 295 296 296 297 297 296 295 295 294 293 293 292 291 290 289 289 288 288 289 290 288 288 289 290 289 289
285 287 286 283 286 286 287 290 289 292 289 288 287 288 291 292 293 291 290 292 291 293 292 290 291 291 291 291 290 290 290 291 292 291 292 292 293 295 299 303 303 302 302 302 301 301 300 300 300 299 299 298 298 298 297 297 296 295 294 294 293 293 293 293 293 293 293 293 294 294 294 294 295 295 295 295 295 294 293 293 292 292 291 291 290 288 288 288 288 289 289 289 288 288 286 286 287
287 286 285 284 286 286 287 288 290 290 290 288 289 289 289 291 292 294 290 290 290 291 291 292 291 292 292 291 291 290 290 290 291 291 291 292 293 295 298 302 302 302 300 301 300 300 300 300 299 298 299 299 298 297 297 296 295 294 293 293 291 291 291 292 291 291 291 291 291 292 292 292 292 293 293 294 293 292 291 291 291 290 291 290 289 289 288 287 286 286 286 287 288 287 284 283 283
291 286 286 287 284 287 288 292 291 288 290 285 286 287 288 290 292 293 290 288 290 291 292 292 292 292 292 292 291 290 290 290 290 290 291 291 293 298 300 301 301 300 300 300 299 300 300 300 299 299 299 299 299 298 297 296 295 294 292 291 290 290 290 290 289 289 289 290 290 290 290 290 290 290 291 291 291 291 290 289 289 288 288 287 287 286 285 286 284 285 286 284 283 283 282 282 283
288 288 285 286 286 286 290 290 290 289 290 288 287 288 290 291 292 292 291 291 293 293 293 294 293 292 292 292 291 290 289 290 290 291 290 291 294 298 300 301 301 301 300 300 300 300 300 299 299 299 298 297 297 296 295 293 293 293 292 291 290 288 289 289 288 288 289 288 289 289 290 289 289 288 289 289 288 288 288 287 286 286 286 286 284 283 283 283 283 283 284 285 283 282 283 283 282
287 286 286 286 285 288 286 287 288 291 290 286 286 287 290 290 291 293 294 294 293 292 292 293 293 293 292 292 292 291 290 290 290 291 291 291 294 298 299 300 300 299 298 298 298 298 298 298 297 296 296 295 294 293 293 292 291 291 290 290 290 289 288 289 288 288 288 288 288 288 288 288 287 286 285 285 285 285 285 284 284 284 283 283 283 283 282 282 282 282 282 283 283 281 280 282 283
285 288 286 285 286 287 289 287 289 288 290 287 289 289 291 291 292 293 296 291 291 293 291 291 291 292 292 292 292 292 291 290 290 290 290 291 293 297 298 300 299 298 297 297 297 297 297 297 297 296 295 294 293 292 291 290 289 289 289 289 288 287 288 287 287 286 287 287 286 286 285 285 285 285 284 284 285 284 283 283 283 283 283 282 283 283 282 282 281 281 281 282 281 282 280 279 282
286 286 290 290 289 289 287 286 290 284 284 285 288 283 281 280 285 290 294 289 292 290 291 293 292 290 291 291 292 290 291 291 291 291 291 291 294 296 298 299 298 298 297 296 296 297 297 297 296 295 294 293 292 291 290 290 289 288 287 287 286 285 285 286 285 285 284 284 283 283 283 283 283 284 283 284 284 284 283 283 283 283 282 283 283 282 282 282 282 282 281 281 281 280 282 280 280
286 287 289 291 290 288 287 287 287 281 281 285 286 285 282 281 287 288 288 288 291 292 288 291 289 289 290 291 291 290 290 290 290 291 291 290 293 295 297 298 298 298 297 297 296 296 295 295 295 294 293 292 292 291 291 290 289 289 289 289 288 287 285 284 284 284 283 282 283 282 282 282 282 283 282 282 283 283 283 282 282 282 282 282 283 282 282 282 282 282 282 282 281 283 281 280 280
284 286 286 289 288 287 287 286 288 284 282 285 284 281 282 286 289 292 293 290 291 291 292 291 289 288 289 290 290 290 290 290 290 290 290 291 292 295 297 298 298 297 296 296 296 295 294 293 293 292 291 291 291 291 290 290 289 289 288 287 287 285 285 283 283 282 282 282 281 281 281 281 282 282 282 282 282 283 282 282 282 282 282 282 283 282 281 281 282 282 282 281 281 280 280 281 279
286 288 287 287 289 287 285 287 283 284 283 282 285 285 284 283 284 286 287 288 290 292 294 295 290 288 289 289 289 289 290 290 290 290 290 291 291 294 297 297 297 297 296 295 295 294 294 293 292 292 291 290 290 290 290 289 288 288 287 286 284 284 283 283 283 284 282 281 281 280 281 280 281 281 281 281 281 282 282 281 281 281 281 281 282 281 281 280 280 280 280 281 280 280 280 279 279
288 287 287 286 285 283 281 282 286 281 280 281 284 285 282 286 283 288 283 287 290 292 295 292 289 289 289 289 289 289 289 289 290 291 291 291 291 293 296 297 295 296 296 296 295 294 294 293 292 291 290 290 290 289 288 287 287 286 285 284 283 282 283 282 282 281 280 280 280 279 280 280 280 280 281 280 281 281 281 281 281 281 281 281 282 280 280 280 280 280 280 280 280 280 279 279 279
290 288 289 287 283 281 279 280 280 281 280 284 285 286 286 282 285 287 287 288 291 292 289 286 287 288 288 289 289 289 288 288 289 289 290 290 290 291 292 294 294 295 295 294 293 293 293 293 291 290 290 290 289 287 285 284 284 284 284 283 283 282 282 281 280 280 279 279 279 279 279 279 279 279 280 280 280 280 281 281 281 281 281 282 281 280 279 280 279 279 279 279 279 279 279 279 280
292 287 283 286 285 279 278 276 277 276 279 281 285 286 287 282 281 283 289 287 287 289 289 287 287 288 289 288 288 288 288 288 288 289 288 288 287 288 290 292 292 293 293 293 292 292 292 291 290 289 288 287 286 286 285 283 283 283 283 283 283 283 282 281 280 280 279 279 279 279 278 279 279 279 279 279 279 279 280 280 280 280 280 279 279 279 279 279 279 279 279 279 278 278 279 279 278
288 287 289 284 276 272 275 272 277 277 280 280 280 284 282 285 289 285 287 290 290 288 290 291 289 288 289 288 288 288 288 287 288 288 288 287 288 288 288 291 292 292 292 292 292 292 292 291 290 289 287 287 286 285 284 283 282 282 283 283 283 283 282 281 281 280 279 279 279 279 279 278 278 279 278 279 278 278 280 279 279 279 279 279 279 279 279 279 279 278 278 278 278 277 277 277 277
287 289 285 283 274 275 274 271 270 270 276 278 279 282 283 283 287 292 296 298 293 290 289 288 289 289 289 289 288 287 287 287 288 288 288 288 288 288 288 290 290 291 292 292 292 291 291 291 290 288 287 286 285 284 283 282 282 282 282 283 282 282 281 281 280 280 279 279 279 279 279 279 279 279 279 278 278 279 279 279 279 278 278 278 279 278 278 278 278 278 278 278 277 277 277 277 276
290 288 291 287 283 276 274 274 276 278 276 275 277 279 277 279 285 287 287 285 283 283 285 285 286 287 289 289 288 286 286 286 287 287 287 288 288 288 288 288 288 289 291 291 291 291 290 290 288 287 285 284 284 283 283 282 282 282 282 282 282 281 281 281 280 280 280 279 279 279 279 278 279 278 279 278 279 278 278 278 278 278 278 278 278 278 278 278 277 277 277 277 277 276 276 276 276
285 285 285 282 285 281 283 273 272 272 271 271 273 280 280 284 284 286 284 284 285 283 285 285 285 285 286 287 287 286 286 287 287 287 287 287 288 287 288 288 287 287 289 290 291 290 290 289 287 286 285 284 283 283 283 283 282 282 282 282 281 281 282 280 280 281 279 279 279 279 278 278 278 278 279 278 278 278 278 278 278 277 277 277 277 277 277 277 276 277 276 277 277 278 276 275 275
285 287 285 286 285 287 278 275 277 274 273 279 275 279 281 284 290 293 293 287 287 284 284 284 284 284 285 287 287 286 287 287 286 287 287 287 286 286 287 287 287 287 287 288 289 290 290 289 287 285 284 283 283 283 283 283 282 282 282 281 281 280 280 280 280 279 279 278 278 278 278 278 278 279 279 278 278 277 277 277 277 277 277 277 277 276 276 276 276 276 276 276 275 275 276 275 275
287 283 287 287 288 286 284 281 278 275 277 279 279 282 282 280 283 281 285 286 288 285 285 284 283 282 284 286 286 287 287 287 287 287 286 286 286 286 286 287 287 287 287 286 287 287 288 288 287 286 284 283 283 283 283 283 283 282 282 281 280 281 280 280 279 279 278 278 278 278 278 278 278 279 279 279 278 277 277 277 276 276 276 276 276 276 276 276 276 275 275 275 275 276 276 276 275
288 286 289 290 283 281 282 281 280 277 278 279 277 277 281 284 285 284 286 286 289 289 285 283 284 283 284 286 286 286 286 286 285 285 285 285 285 286 286 286 286 286 286 286 286 286 286 286 286 286 285 284 284 284 283 283 283 283 283 282 281 280 279 279 278 278 278 278 278 278 278 278 278 278 278 278 277 277 276 276 276 276 276 276 276 276 276 275 275 275 276 276 276 276 275 274 275
288 289 288 285 285 279 280 286 278 279 276 271 278 274 281 283 284 286 290 289 289 290 284 286 287 286 286 286 286 286 286 286 286 286 286 285 285 285 285 285 285 285 285 285 285 285 285 285 285 284 284 284 284 284 283 283 283 283 282 281 281 280 280 279 279 278 278 278 278 279 278 278 278 278 277 277 276 277 277 277 277 277 277 277 276 276 276 275 275 276 276 275 275 274 274 273 274
284 286 284 286 284 285 283 281 281 280 271 270 274 277 278 280 286 288 292 292 290 290 289 289 289 287 286 287 287 287 286 286 286 286 286 285 284 284 284 284 285 284 284 284 284 284 285 285 285 285 284 284 284 284 283 283 283 283 282 281 281 280 279 279 278 278 278 278 278 279 278 278 278 277 277 277 278 278 277 276 277 277 277 276 275 275 276 275 275 275 274 274 273 274 273 273 273
290 290 287 290 285 284 282 281 281 275 276 276 268 278 281 283 284 290 291 292 292 291 291 292 290 288 287 287 287 287 287 287 287 286 286 285 284 283 283 283 283 284 284 284 284 284 284 284 285 284 284 284 283 283 283 283 283 283 282 281 280 280 279 279 278 278 278 278 278 278 278 278 278 277 277 277 278 278 277 277 277 276 276 276 277 276 275 275 275 274 274 274 273 273 273 272 273
Wind_Speed
7 6 4 3 3 4 1 6 1 2 4 1 0 1 1 0 1 1 1 3 2 1 1 3 2 2 0 2 7 5 0 2 1 2 1 1 2 4 3 3 1 3 5 4 4 4 4 6 8 8 9 10 11 11 10 10 10 10 11 11 10 11 11 11 11 11 11 11 12 12 12 12 13 14 14 14 13 13 13 14 14 14 15 15 14 14 14 14 13 13 13 13 13 13 13 12 12
4 4 4 1 1 2 2 2 4 2 6 3 1 1 1 3 1 2 1 1 1 1 1 6 7 10 10 9 6 2 3 1 2 1 2 2 5 2 3 2 4 7 4 4 4 3 3 5 7 9 11 11 11 11 10 10 9 9 9 9 10 11 11 11 11 11 11 11 11 12 12 12 13 13 13 13 13 13 14 15 14 14 14 13 13 14 13 13 13 13 13 13 13 13 13 13 12
3 5 3 4 3 3 2 4 0 1 5 1 3 4 1 0 2 3 3 2 2 1 1 3 4 4 1 1 4 3 1 0 1 0 1 3 1 2 5 4 0 4 7 4 4 4 3 5 6 9 10 11 11 11 11 10 9 8 9 9 10 11 11 10 11 11 10 10 10 11 11 12 12 12 12 13 13 13 14 14 13 12 12 13 13 13 13 13 13 13 13 13 14 14 14 13 13
1 2 1 3 2 3 1 4 5 7 4 5 0 2 1 3 5 5 4 5 2 0 1 0 3 1 2 7 0 0 2 1 0 1 1 2 0 4 5 3 2 2 3 4 4 4 3 5 7 8 10 10 11 11 11 10 10 9 9 9 9 10 9 10 10 10 10 10 10 11 11 11 12 12 12 13 13 14 15 13 12 12 12 12 13 13 13 13 13 13 13 13 14 14 14 14 14
1 2 2 3 3 1 4 1 5 3 2 5 5 4 3 4 4 4 2 3 3 2 2 1 3 2 1 4 1 1 1 3 1 0 1 2 2 4 5 3 1 3 4 4 4 4 3 7 7 7 9 10 10 11 11 10 10 9 7 8 10 9 9 9 10 10 9 9 9 10 10 11 12 13 13 13 13 14 13 12 11 11 12 13 13 13 13 14 13 13 13 14 14 14 14 14 14
4 2 3 1 0 2 6 2 2 1 4 5 3 3 4 6 5 5 2 1 1 0 3 2 2 3 2 2 1 1 1 2 1 2 0 2 5 5 4 2 2 3 3 3 3 3 3 7 7 6 9 10 9 10 10 10 10 9 8 9 10 9 8 9 9 9 9 9 9 9 9 11 11 12 13 13 13 13 12 11 11 11 12 12 13 13 13 13 13 13 14 14 14 14 14 14 15
1 3 3 4 3 5 3 4 3 3 1 6 3 3 6 5 6 1 1 1 0 4 1 2 3 4 4 0 1 0 1 3 1 1 0 5 5 4 3 2 3 3 3 3 3 3 4 7 8 7 7 8 9 9 10 10 10 9 9 9 10 9 9 9 9 9 9 9 9 9 10 10 11 11 12 12 12 11 11 11 12 12 12 12 12 13 13 13 13 14 14 14 14 14 14 15 16
2 2 2 3 1 4 3 1 2 3 0 4 2 4 5 5 3 2 1 3 1 1 2 2 1 4 0 2 1 1 2 1 2 4 4 3 3 5 2 4 4 2 4 3 3 2 4 7 8 8 7 10 9 8 9 10 9 9 8 8 8 8 9 8 8 9 9 9 9 10 10 10 11 11 12 12 11 11 11 11 11 11 11 12 12 12 13 13 13 14 14 14 14 13 14 15 16
4 5 0 6 4 3 3 2 0 2 3 1 2 4 3 2 2 3 1 1 0 1 0 1 1 1 2 1 1 2 2 4 3 3 4 5 6 4 2 3 5 3 2 3 3 2 2 5 7 7 9 9 8 8 5 9 9 9 8 8 8 8 8 8 8 7 8 9 10 10 10 11 11 11 12 12 11 11 11 10 10 10 10 11 12 12 13 13 13 14 14 14 14 14 15 15 16
2 1 1 3 4 4 2 1 4 1 1 1 2 1 2 2 2 0 3 3 0 1 1 0 2 1 2 3 1 2 1 4 4 3 5 4 4 4 5 3 2 5 3 3 3 3 3 5 7 7 7 9 9 8 9 5 9 8 8 9 9 8 7 7 8 8 8 9 10 10 10 10 11 10 11 11 12 11 10 10 10 10 11 11 12 12 13 13 13 14 15 15 15 15 15 16 18
1 6 3 4 5 3 2 3 2 1 0 3 3 4 4 1 3 1 1 2 1 1 1 2 4 3 2 1 2 3 3 4 3 1 3 3 3 5 4 4 3 2 4 3 4 3 4 3 5 5 7 7 8 9 9 5 5 7 8 8 9 8 7 7 8 8 8 9 10 10 11 11 11 11 11 11 11 11 10 10 9 10 11 12 12 12 13 14 14 14 15 15 15 15 16 17 18
0 1 2 4 3 7 5 6 1 2 3 2 1 1 1 4 1 1 1 5 0 1 0 2 2 6 2 1 1 0 4 2 1 1 2 2 5 4 5 4 5 5 4 3 2 3 3 3 3 4 6 5 5 8 10 7 4 4 6 7 8 8 8 7 8 7 8 9 10 10 10 11 11 11 10 11 11 11 11 10 10 10 11 12 12 12 13 13 14 14 14 15 15 15 15 17 18
3 2 6 6 1 1 3 4 3 0 1 3 3 0 1 2 4 5 3 3 1 3 1 2 4 2 1 2 2 3 1 0 2 1 2 4 4 4 5 7 7 8 7 6 6 5 2 4 4 3 4 8 6 6 6 5 4 3 4 6 5 7 7 8 8 7 8 10 10 9 9 8 8 9 10 11 10 10 11 10 9 10 11 12 11 11 12 13 14 14 14 14 14 14 15 16 17
4 5 4 2 1 4 5 3 1 4 3 3 2 1 0 1 2 4 7 3 0 1 1 2 2 2 1 1 1 2 3 1 2 2 3 4 4 6 7 6 8 8 7 8 7 5 9 7 6 2 4 6 5 5 7 9 6 4 4 2 5 7 8 7 8 7 8 8 9 8 8 7 7 8 7 9 10 9 10 10 9 10 11 12 11 11 12 13 14 14 15 15 15 15 15 15 16
1 2 6 5 1 2 1 5 8 4 5 1 1 0 1 2 3 2 2 5 1 1 3 2 0 0 4 6 5 4 4 1 1 2 5 6 7 7 7 6 7 7 8 7 5 8 9 7 7 6 3 6 6 4 4 6 8 4 3 3 3 6 7 7 7 6 7 8 8 8 8 7 6 7 8 9 9 9 8 8 8 9 11 11 11 11 12 12 13 14 15 15 15 15 15 16 16
4 6 5 3 2 4 3 1 1 3 4 3 2 1 3 1 1 2 2 1 2 1 1 1 4 0 1 4 1 2 1 1 3 4 6 7 5 6 6 7 6 6 6 7 8 7 5 5 5 4 4 4 2 2 5 6 5 6 5 1 3 1 5 7 7 6 7 7 8 8 8 6 6 6 9 8 9 9 9 6 7 9 11 11 11 11 11 12 12 13 14 14 15 15 15 15 15
2 4 3 4 2 2 3 3 5 3 3 3 4 0 2 1 0 0 0 2 5 2 4 0 1 1 0 0 1 3 2 2 5 5 6 5 5 5 5 5 4 5 5 6 5 6 5 5 6 5 7 7 4 2 1 3 5 7 6 5 4 5 6 7 7 7 6 5 5 6 7 4 4 4 5 5 8 6 8 8 7 8 10 11 11 11 11 11 12 13 13 13 13 13 11 12 13
2 3 6 2 2 2 5 5 9 1 4 4 1 2 3 2 0 1 1 8 3 2 4 3 3 3 0 1 1 1 1 5 4 7 5 4 3 3 4 4 4 3 5 6 5 6 6 5 5 5 4 6 5 4 0 2 3 3 4 3 3 5 5 6 6 5 5 4 5 4 3 4 4 4 5 5 5 7 7 8 7 8 8 8 10 11 11 11 12 13 13 12 11 10 9 7 6
5 2 4 6 4 1 6 3 6 2 3 4 2 1 4 3 5 1 1 1 0 1 2 3 2 1 2 3 4 4 4 4 5 6 5 4 3 4 2 3 3 3 4 6 5 6 5 4 5 4 4 4 5 5 2 2 3 3 3 4 4 4 5 6 5 6 4 5 4 4 3 3 3 4 5 5 5 7 7 9 9 8 9 8 8 9 10 11 12 12 11 10 10 8 6 6 6
1 3 2 2 7 2 4 4 5 5 3 4 2 1 2 1 2 1 1 4 0 4 3 1 1 3 3 0 3 3 5 4 4 6 5 4 3 2 2 2 2 3 3 2 5 4 4 4 5 4 5 5 3 3 4 2 3 4 4 4 3 3 2 2 4 4 3 4 5 3 3 3 3 3 5 7 7 5 4 5 7 7 10 9 9 7 8 9 10 10 10 9 7 5 6 6 6
0 3 3 3 4 2 1 4 4 3 4 5 3 0 1 1 2 1 3 4 3 5 6 7 10 8 7 3 1 3 5 5 4 4 5 4 3 2 1 1 0 3 2 4 3 5 5 5 5 4 4 3 3 3 3 2 2 5 4 3 3 4 4 3 3 4 3 4 4 4 4 4 4 3 3 4 4 4 5 5 4 4 4 5 7 5 5 5 5 5 5 6 6 6 7 6 5
3 1 1 2 2 0 2 3 3 4 2 6 1 4 4 1 1 2 6 4 5 6 4 8 4 9 10 7 3 3 4 5 4 4 4 4 4 2 1 1 2 2 3 3 4 5 5 5 5 4 4 3 3 1 1 2 3 5 4 4 4 4 5 5 4 3 4 3 2 2 4 5 4 4 4 4 4 3 5 5 5 4 4 5 4 5 5 4 4 5 6 6 6 6 7 6 5
1 1 0 2 2 1 1 2 4 4 3 4 3 3 2 2 1 1 5 6 2 3 5 5 4 8 6 4 5 5 4 5 4 4 4 4 3 2 2 1 3 4 4 3 3 3 4 4 4 5 4 2 1 2 2 2 4 3 4 5 5 5 4 5 4 4 4 4 3 3 2 3 3 4 5 4 4 3 3 3 3 2 3 3 3 5 5 4 5 6 6 6 5 7 7 6 6
5 2 0 0 2 3 3 3 5 3 9 5 4 1 2 2 3 0 2 2 2 2 2 4 6 7 6 7 3 6 4 5 4 2 1 3 3 3 1 2 2 1 2 4 4 3 4 5 5 4 3 1 2 3 4 5 4 6 7 6 7 4 5 6 5 4 4 5 4 4 2 2 2 2 2 4 4 4 4 4 4 3 4 3 5 4 4 5 6 6 6 6 7 7 7 6 6
2 1 1 1 1 3 1 0 2 3 2 0 4 4 3 5 1 1 4 2 1 3 4 6 7 6 4 6 5 4 4 3 4 2 2 1 1 0 1 1 0 0 1 3 4 4 5 5 5 3 2 2 3 4 5 5 5 6 6 6 7 3 5 5 5 4 5 5 5 5 3 3 5 5 4 4 4 5 4 5 5 5 5 4 5 5 5 6 6 6 6 7 7 7 6 6 6
0 0 2 0 0 2 1 1 2 2 0 1 2 4 3 4 1 3 4 4 3 3 5 5 6 6 5 5 5 5 5 4 3 3 3 0 0 3 2 2 1 1 2 2 3 4 4 5 4 4 3 3 4 5 4 6 5 6 6 7 6 4 5 4 5 6 5 5 5 5 5 4 5 6 6 4 7 6 6 6 6 6 6 5 6 6 6 7 6 6 6 7 8 7 7 5 7
2 1 1 0 0 2 1 4 3 1 1 1 4 2 0 2 2 7 0 4 4 5 5 2 6 6 4 4 4 3 5 5 5 3 2 1 1 2 2 1 1 1 1 2 2 3 3 4 5 5 5 5 4 6 5 6 5 6 6 5 6 6 5 4 4 6 6 6 5 6 6 5 6 6 6 6 6 7 7 7 7 6 7 6 6 7 6 7 6 6 6 6 7 7 6 5 7
3 2 1 1 7 2 2 1 4 0 3 4 5 3 0 2 1 7 4 5 5 8 4 4 4 4 4 4 4 3 3 3 2 3 5 3 3 3 2 2 1 1 2 2 2 3 3 5 4 5 5 5 6 6 6 6 6 6 7 3 6 5 5 4 6 6 5 5 6 7 6 6 6 6 7 7 7 7 7 7 6 8 7 6 5 6 7 7 7 6 7 7 6 7 7 7 7
0 0 1 4 7 4 0 5 3 3 3 3 4 1 4 1 6 3 3 6 5 6 6 4 4 4 4 3 3 3 3 3 2 2 4 3 2 0 3 2 1 1 1 2 2 3 4 4 4 5 5 5 6 7 6 5 7 6 7 5 5 6 4 4 7 6 5 7 6 7 7 6 6 7 7 8 8 8 7 8 7 7 6 6 6 7 8 8 7 7 7 6 6 6 9 8 8
1 4 1 4 5 4 2 0 1 5 2 4 2 4 7 8 9 2 4 8 4 5 5 4 4 4 4 4 3 3 1 2 3 4 3 3 3 2 3 2 1 1 0 1 1 3 3 2 3 4 5 6 7 7 5 4 8 5 6 5 6 6 3 6 7 6 5 6 6 6 7 7 7 6 8 8 7 8 8 8 7 6 6 6 6 6 7 6 6 8 6 8 7 8 8 7 9
1 1 3 0 2 4 2 0 1 4 2 4 1 4 8 8 5 2 5 7 11 9 7 6 5 4 4 4 4 4 3 3 4 4 3 2 2 2 2 2 1 1 0 2 2 4 4 4 3 3 5 7 7 8 7 7 8 5 5 5 6 5 4 7 6 5 5 6 6 6 7 8 7 6 6 8 8 8 9 8 8 6 6 7 8 6 7 6 5 8 7 9 8 8 8 8 9
2 1 3 3 3 5 7 2 6 5 0 0 3 2 10 8 7 3 6 6 6 9 7 7 6 6 5 4 4 4 4 2 3 3 3 3 2 3 2 2 1 1 1 2 3 4 5 4 4 5 6 7 7 7 7 7 8 5 6 6 6 6 4 6 6 5 3 6 7 7 7 7 7 7 6 6 8 7 7 8 7 6 7 8 7 7 6 8 6 7 6 6 10 8 9 8 7
5 2 4 1 0 5 9 1 2 2 2 1 5 7 3 5 3 1 4 7 6 5 6 7 8 8 7 6 5 4 3 2 1 3 3 3 2 2 2 1 1 1 1 2 4 4 5 5 5 6 7 7 8 7 7 8 7 7 8 7 6 6 5 7 5 4 5 7 6 7 6 7 7 7 6 5 8 8 7 8 6 6 6 7 7 7 7 6 6 7 7 6 6 9 10 10 8
3 2 3 4 3 1 3 5 2 1 3 4 2 2 7 3 2 1 3 6 5 7 8 8 8 7 7 5 5 5 5 4 5 4 4 3 3 2 1 1 1 2 2 2 3 4 5 4 4 5 7 7 6 6 8 7 6 7 7 5 7 8 6 5 5 5 7 7 6 7 6 6 7 7 6 6 8 7 7 7 6 7 7 7 7 6 7 7 5 6 9 7 6 8 8 9 9
4 2 1 5 1 3 4 1 1 4 1 4 2 4 11 12 6 4 7 5 7 11 12 9 8 7 6 7 6 6 6 7 6 5 4 4 3 2 2 1 1 2 2 4 4 5 4 5 5 5 6 7 7 7 7 8 8 8 7 6 8 6 5 6 6 7 6 7 6 6 6 6 6 6 6 7 8 8 7 7 7 7 6 7 7 8 8 7 7 7 11 9 9 8 8 6 7
4 8 6 3 3 4 3 6 4 6 3 4 5 8 11 13 12 6 6 8 11 13 7 4 6 7 7 8 7 7 7 7 4 3 3 3 3 3 2 2 2 2 3 4 5 5 5 5 5 5 4 5 6 7 6 6 6 6 7 7 8 6 5 7 7 6 6 6 6 6 6 6 6 6 6 7 8 7 7 7 7 6 6 7 9 9 7 6 8 10 8 11 11 9 7 6 5
4 3 3 4 5 5 4 4 4 2 0 6 8 9 8 10 10 11 5 5 7 8 9 10 8 9 10 9 10 9 8 7 4 4 4 4 4 3 2 3 3 3 3 4 5 5 5 5 6 6 5 5 5 5 5 5 6 7 6 5 8 4 5 6 6 6 6 6 6 7 7 6 6 6 6 6 8 7 7 6 7 7 6 7 9 7 6 8 6 7 7 6 9 9 6 4 2
1 2 2 4 3 5 4 0 3 4 4 3 2 5 10 12 12 11 1 5 11 14 14 13 12 11 11 12 11 10 6 1 3 3 3 3 3 3 3 3 4 6 4 4 4 4 5 6 6 6 4 4 3 3 4 4 3 3 6 6 6 5 5 5 5 5 6 5 6 7 6 6 6 6 6 6 7 7 7 7 7 7 7 8 8 7 6 6 6 6 8 8 4 5 4 3 4
1 3 2 2 6 3 9 5 2 1 1 8 6 8 11 10 10 10 7 11 10 12 14 16 15 13 12 11 10 8 6 7 5 5 4 4 4 5 4 4 4 4 6 5 3 5 5 5 6 5 4 4 4 4 4 6 5 6 5 5 4 6 6 5 6 5 5 7 6 6 6 5 6 6 6 6 7 6 7 7 6 6 6 6 8 8 7 7 5 6 5 10 7 3 5 5 5
3 1 1 8 3 1 6 1 1 0 3 3 1 6 10 7 7 13 14 12 9 7 9 12 11 14 15 14 14 14 12 10 12 9 8 6 6 6 5 5 5 5 5 5 5 5 5 5 4 4 5 4 5 5 6 7 8 10 9 8 6 5 6 5 6 6 7 6 7 6 6 5 6 6 5 5 6 6 6 7 6 6 6 4 7 8 7 6 6 5 6 5 8 6 3 6 6
4 6 5 3 3 5 7 5 2 2 2 1 5 9 12 8 12 10 13 4 3 9 6 8 9 8 6 5 7 10 15 15 12 9 8 7 8 8 8 7 5 6 6 6 6 5 5 5 5 5 5 5 5 6 7 9 10 10 9 10 8 8 6 5 6 7 5 5 5 6 6 5 5 6 5 6 6 7 6 6 6 6 7 5 6 8 7 6 5 4 4 5 4 9 5 3 6
4 5 10 9 6 6 4 3 3 5 4 3 1 6 6 4 7 11 11 3 6 4 6 13 10 6 6 10 12 7 7 8 14 14 13 11 9 8 7 7 7 7 7 5 5 5 6 6 5 6 5 6 7 7 7 7 8 12 10 8 7 5 6 4 5 7 6 5 5 2 5 5 5 5 5 6 6 6 7 6 5 7 7 7 6 7 6 6 6 7 4 5 6 4 10 5 4
2 6 9 10 7 4 2 1 3 3 5 2 2 6 11 1 5 6 6 4 11 8 6 11 6 8 9 10 9 11 12 10 5 6 7 9 8 9 9 9 9 8 6 5 6 6 6 7 7 6 6 6 6 7 7 6 6 5 8 10 10 10 9 2 3 4 4 5 5 5 5 5 5 6 5 5 5 5 6 6 7 7 7 6 5 7 8 7 6 5 4 7 5 3 5 8 7
4 2 3 5 3 4 5 4 6 5 1 3 1 2 5 16 7 8 9 7 10 10 12 12 8 6 8 7 8 9 11 11 12 11 10 10 10 12 13 10 9 8 6 6 7 6 7 7 7 7 6 6 6 7 6 5 6 6 6 6 6 5 8 9 6 4 3 3 6 5 5 5 5 4 5 5 5 6 7 7 6 6 8 6 7 7 7 5 6 6 6 5 5 6 6 9 5
3 0 4 5 6 4 3 3 3 0 2 8 1 1 3 9 4 2 1 4 9 15 16 16 6 6 7 7 8 10 11 12 12 12 13 13 13 11 10 10 7 7 7 8 8 7 7 6 6 6 6 7 7 7 6 4 3 4 7 9 8 5 6 7 6 4 5 3 7 4 5 4 5 5 5 6 5 6 5 6 6 7 8 6 7 7 6 6 6 6 6 7 7 6 6 4 6
1 5 8 7 7 6 3 3 3 2 1 8 7 4 4 19 3 4 4 1 9 12 15 7 4 11 10 9 7 8 7 7 7 10 12 11 10 9 8 7 7 7 7 7 7 7 7 7 7 8 8 6 6 6 5 5 5 6 8 7 12 9 6 5 5 7 4 4 6 5 4 5 5 6 5 5 6 5 5 6 7 7 7 6 6 7 6 7 6 7 5 6 6 8 5 6 6
7 4 8 6 8 4 3 6 2 3 7 9 10 10 7 11 1 8 8 8 10 8 5 4 3 3 5 8 10 11 11 10 9 8 7 8 6 7 7 10 8 6 6 7 7 7 7 8 8 8 8 6 6 6 6 6 6 5 8 10 12 13 9 9 8 7 5 4 7 5 5 5 4 5 5 5 4 4 5 5 6 6 6 6 6 6 6 7 6 7 6 7 7 7 6 7 7
7 2 4 5 3 6 4 5 4 1 9 3 9 13 11 12 4 6 6 2 3 5 4 3 5 6 9 8 7 8 9 10 9 8 8 7 6 6 6 9 9 8 7 7 7 7 8 7 8 8 6 6 6 6 6 6 6 5 5 9 11 12 13 10 11 10 7 7 6 7 5 5 5 5 4 5 5 4 5 6 6 6 6 6 6 5 6 6 6 6 7 7 6 6 6 7 6
4 6 7 7 4 5 2 4 3 6 9 1 2 1 3 19 10 3 7 10 8 7 7 6 5 6 7 7 8 8 7 8 10 10 9 9 11 11 10 10 9 9 9 9 9 8 8 8 9 10 8 7 7 7 7 6 6 6 8 7 8 9 10 10 10 10 7 8 7 7 7 7 6 6 4 6 4 4 5 7 6 6 6 5 5 5 5 6 6 7 7 7 6 6 5 6 7
6 9 8 7 1 2 5 3 2 7 7 4 1 1 9 2 8 10 20 19 8 6 8 6 5 7 9 10 9 9 9 10 10 10 10 11 11 10 10 10 10 9 10 10 9 9 8 8 9 9 8 8 7 6 6 7 5 7 7 8 9 9 9 9 8 9 8 7 7 8 8 8 8 7 7 6 5 5 5 5 5 6 5 4 4 5 5 5 6 6 6 7 7 5 6 8 8
11 3 12 10 9 6 3 7 7 8 4 3 4 3 8 5 5 1 6 5 4 3 6 5 6 6 5 6 7 7 8 8 8 10 11 12 12 11 11 11 10 9 10 10 9 9 8 8 8 8 7 6 8 8 7 7 7 7 7 7 8 6 8 8 7 7 8 8 7 7 6 6 7 6 6 5 4 6 6 6 6 6 5 5 4 5 5 6 6 6 6 6 6 5 6 7 6
2 1 5 3 9 7 8 4 2 1 2 3 2 7 4 6 3 6 5 5 6 3 2 1 4 3 5 8 11 11 11 11 10 10 10 10 10 11 10 9 9 9 9 9 10 9 9 9 8 8 10 9 8 8 7 8 7 7 6 7 6 6 5 6 6 5 5 5 7 7 7 6 5 6 4 5 4 5 6 6 6 6 6 6 5 5 6 6 5 7 6 6 6 2 6 7 6
5 5 8 6 2 5 1 2 1 1 2 12 5 9 7 8 13 13 15 7 7 1 2 1 3 2 4 9 10 11 12 12 11 11 12 11 9 9 10 10 9 9 9 10 11 11 11 10 9 8 7 6 7 9 9 8 8 8 7 6 6 6 7 8 9 8 7 5 5 5 6 5 5 5 6 4 5 3 4 4 6 6 5 6 6 5 6 5 4 6 6 6 6 4 6 6 5
8 5 7 2 2 3 3 6 1 1 6 9 6 12 6 1 14 3 2 6 10 5 7 5 3 4 7 9 11 13 14 14 12 10 8 10 10 11 9 9 10 11 10 9 9 8 8 9 11 10 9 10 7 6 7 8 9 8 8 7 6 7 7 6 6 8 7 7 5 5 5 6 5 5 5 4 5 5 4 4 5 5 5 5 7 6 6 6 6 6 5 5 4 5 6 5 5
6 6 5 8 5 3 2 3 9 3 8 7 4 3 11 10 13 2 1 6 11 12 7 5 6 7 10 8 9 8 6 7 9 10 9 10 11 12 12 11 8 7 7 8 7 7 7 7 8 11 12 11 10 8 7 6 8 8 8 8 8 7 5 5 5 5 6 7 8 7 6 6 5 5 6 5 5 5 5 5 5 5 5 6 6 6 6 5 5 6 5 5 4 5 6 6 4
2 3 4 1 3 1 7 8 1 3 6 1 9 4 13 7 7 9 12 11 12 8 5 11 13 12 11 10 10 11 12 11 11 11 11 11 10 10 11 11 12 11 10 8 8 7 9 8 9 7 6 7 8 9 9 10 8 8 8 7 7 7 7 8 7 8 8 7 7 7 7 7 6 5 5 5 5 5 5 6 5 5 6 6 7 6 6 5 5 5 5 6 4 5 6 6 4
2 4 5 1 1 1 4 1 4 5 4 5 6 12 6 8 7 11 15 12 11 10 12 12 12 12 11 10 11 12 12 12 12 12 11 10 10 9 9 8 8 7 6 7 8 10 9 8 9 9 11 10 10 9 9 9 9 9 10 10 9 8 8 7 8 7 7 7 6 6 6 6 6 5 6 6 6 6 5 5 5 6 6 6 6 6 5 6 5 6 5 5 5 6 7 4 4
14 16 14 15 11 6 6 9 2 2 3 7 5 16 3 3 4 9 9 10 10 10 10 12 9 8 11 10 10 11 12 12 11 10 9 9 8 8 7 6 6 8 9 10 9 9 10 11 10 9 9 10 11 10 10 9 8 9 10 10 9 7 8 8 9 8 8 7 7 7 7 6 7 6 6 6 6 5 5 6 6 5 5 5 6 6 6 6 6 6 6 4 6 6 6 5 4
Wind_Direction
337 348 338 356 57 91 42 2 116 338 61 335 4 10 205 155 206 36 186 336 80 304 289 3 61 66 188 153 142 141 155 121 209 123 197 239 277 291 293 282 177 170 151 145 139 152 148 146 150 146 146 144 128 125 124 123 120 119 120 121 117 108 103 105 99 94 93 92 93 96 96 95 91 89 90 89 87 83 79 74 68 59 55 52 50 47 44 42 42 42 42 43 43 42 42 43 44
332 350 13 10 34 49 230 118 99 3 38 57 241 94 248 306 53 208 177 180 204 97 305 86 70 64 61 96 117 101 39 52 181 208 286 237 312 336 330 314 168 154 148 135 143 142 154 144 154 154 151 142 136 132 129 124 123 121 118 115 115 110 108 107 105 100 100 98 98 98 96 94 93 96 97 94 89 84 78 70 63 57 54 53 51 47 44 43 43 42 42 43 44 43 43 43 44
341 10 25 28 29 69 92 36 214 35 91 114 270 206 329 209 185 223 222 207 175 188 193 84 91 70 30 13 30 60 196 34 13 301 234 335 42 299 349 332 10 146 142 133 142 147 152 144 159 151 155 147 143 136 136 130 127 126 121 119 116 115 115 114 110 109 107 105 106 105 103 100 101 101 99 96 90 83 76 70 64 61 57 53 51 47 44 44 44 44 44 44 44 43 45 45 46
39 45 129 67 241 32 60 30 82 126 114 200 263 273 196 191 208 203 233 241 254 203 220 15 50 272 109 65 128 84 36 7 137 246 356 349 163 279 311 327 2 94 119 130 137 147 151 150 157 165 156 153 148 142 137 134 130 131 127 125 120 115 117 117 115 113 112 112 110 109 110 109 109 104 97 93 89 84 78 73 67 63 61 55 51 47 45 46 46 46 45 46 46 45 46 48 50
60 14 81 102 110 333 103 117 138 105 123 199 164 267 253 206 214 222 268 256 285 164 157 145 72 337 113 119 331 122 228 290 327 134 273 262 284 279 302 312 152 144 139 137 135 148 150 145 171 153 159 159 155 145 141 138 138 137 128 125 124 120 121 120 117 114 111 114 113 113 114 115 112 108 104 98 94 88 84 79 72 65 60 56 51 48 46 48 49 48 48 49 50 48 49 52 54
63 56 20 95 8 152 57 70 63 82 221 149 120 232 218 212 198 204 259 326 295 46 137 70 159 191 22 351 167 81 285 46 297 313 340 286 336 307 292 299 144 149 139 130 131 138 146 157 144 166 160 158 165 147 148 142 143 137 132 135 132 128 124 123 119 115 117 115 114 115 111 114 112 106 103 100 96 93 89 84 75 68 62 55 50 49 49 50 51 51 50 51 53 55 57 58 57
285 50 356 26 21 47 175 124 153 165 224 162 195 185 200 209 225 123 244 44 180 69 319 147 123 92 66 302 356 169 207 240 11 280 232 289 310 317 325 149 148 156 144 137 132 143 155 156 158 167 162 155 170 151 157 148 144 141 140 141 138 133 130 130 127 123 118 112 109 109 115 119 111 105 101 99 95 93 89 82 74 69 65 59 54 50 50 53 54 55 54 54 55 60 61 61 57
56 131 314 98 312 49 43 175 145 174 4 180 239 171 207 211 186 173 175 102 265 65 23 112 42 102 261 34 185 264 338 158 252 277 288 304 347 351 358 144 146 155 157 131 127 138 167 163 167 156 165 152 182 169 165 151 147 142 144 142 139 137 135 132 127 122 116 116 117 119 125 118 117 111 107 104 99 92 86 81 77 72 68 64 60 56 54 55 58 58 58 57 59 61 62 59 54
1 88 356 69 53 29 58 63 267 217 297 206 282 239 280 193 159 132 93 271 302 53 35 278 236 74 222 47 148 272 293 318 321 286 350 5 13 345 6 127 143 136 115 133 125 116 151 181 168 162 159 167 170 170 162 161 146 145 146 144 144 141 140 134 127 123 122 124 124 127 129 127 124 120 117 113 106 99 95 92 87 82 75 69 64 59 56 57 59 61 61 61 62 64 64 55 54
39 65 256 111 136 64 34 321 84 181 230 238 188 253 207 178 182 274 152 75 137 66 22 107 127 96 136 121 334 354 298 335 301 9 360 4 2 12 41 33 111 141 121 124 133 138 150 189 166 164 162 164 169 155 172 192 151 147 149 150 149 146 143 138 132 124 128 131 131 132 133 132 130 129 125 120 115 110 104 96 90 84 77 71 65 61 58 59 61 63 65 67 65 68 60 55 55
327 16 133 74 37 114 141 210 268 317 288 328 313 253 228 163 155 124 2 131 326 161 225 143 36 135 81 240 202 247 302 337 48 6 318 340 12 26 40 36 58 95 121 124 136 144 158 169 165 162 151 179 167 163 150 204 180 145 147 155 157 148 144 142 137 130 133 133 137 139 142 141 140 138 134 128 119 112 107 99 93 86 80 73 69 65 63 61 63 67 71 71 69 65 61 58 57
340 28 5 100 155 151 219 157 214 257 301 347 195 293 237 173 135 107 151 112 318 14 96 89 204 148 65 8 288 288 324 3 15 286 313 350 44 25 43 43 49 47 51 69 105 126 143 130 150 156 180 164 173 160 158 180 193 152 148 159 158 152 143 143 138 137 135 137 141 145 149 148 146 146 138 129 118 115 112 105 95 87 84 78 74 70 65 62 63 68 73 74 73 70 66 63 61
112 97 87 80 187 94 169 111 202 283 340 265 168 232 114 122 191 177 171 121 26 85 359 301 146 86 126 190 257 315 26 280 344 339 18 35 33 40 46 48 45 43 31 34 49 31 73 118 135 155 168 149 188 158 140 148 181 214 137 146 158 149 150 138 139 142 140 143 147 149 151 150 146 147 142 130 119 117 115 107 104 95 86 83 79 75 67 63 63 67 69 68 69 70 69 68 67
114 178 121 129 44 115 130 172 334 156 260 233 270 278 262 131 248 173 135 95 330 130 237 329 100 135 105 41 284 273 249 263 331 59 56 45 45 47 52 50 48 44 35 34 35 19 34 17 12 327 157 161 151 151 155 169 186 179 129 148 162 149 154 147 147 147 146 148 148 147 146 145 142 141 122 120 120 117 116 115 111 100 91 86 85 80 71 63 60 61 62 62 62 62 63 65 68
105 139 83 116 65 72 234 124 197 154 222 191 217 93 72 320 102 99 134 127 180 241 306 17 152 117 231 147 266 209 215 320 79 102 75 58 49 49 46 43 51 41 30 26 17 23 25 18 1 342 244 153 147 154 159 170 173 145 133 133 142 154 152 144 140 141 140 146 147 142 143 143 135 124 121 120 115 114 112 115 113 105 99 94 92 84 76 67 62 60 59 59 58 59 61 63 63
141 84 82 97 154 126 228 128 43 100 248 181 265 91 75 331 148 107 240 158 174 328 4 212 7 188 305 152 245 225 247 320 143 98 78 62 48 44 42 32 34 34 32 11 21 18 7 13 5 326 345 25 42 154 170 164 158 156 163 156 124 91 137 125 129 135 140 146 144 140 132 122 109 109 121 119 117 116 118 124 120 111 107 104 96 89 81 74 64 62 62 61 60 56 53 51 56
56 81 55 43 145 157 215 150 146 197 244 258 286 307 141 210 297 360 174 62 104 346 32 7 289 20 122 191 290 315 336 124 108 84 77 53 45 33 21 27 4 39 21 24 21 1 358 8 349 338 13 8 360 346 160 127 149 163 173 166 157 119 142 145 139 125 120 121 122 114 110 103 105 111 122 126 122 121 130 134 124 113 113 109 102 94 88 82 74 68 68 68 63 58 50 48 44
55 63 115 70 189 124 200 174 188 207 141 227 199 199 118 179 197 219 30 26 75 16 57 321 5 31 260 290 341 328 23 112 114 99 76 65 37 43 40 359 7 14 348 344 5 360 359 357 340 351 4 344 337 346 99 128 130 175 167 161 156 139 143 141 123 106 97 92 98 120 123 130 135 136 134 132 132 136 139 140 132 123 112 103 103 96 91 87 84 81 77 73 67 61 59 56 49
88 119 85 182 193 229 146 202 193 126 237 175 205 122 154 210 145 240 117 305 61 73 352 19 3 345 23 23 1 45 73 71 100 103 106 98 74 85 44 357 13 357 0 353 336 354 352 326 347 337 349 327 333 336 355 162 138 161 188 175 156 147 150 145 126 131 139 138 151 154 142 153 155 151 147 149 145 149 151 153 142 133 115 106 98 96 92 91 92 92 87 81 72 62 57 60 62
184 110 85 246 205 236 208 175 197 206 130 141 166 204 165 236 144 165 210 181 22 195 186 317 251 227 218 301 26 48 76 75 79 111 105 93 77 85 66 33 359 353 323 326 319 321 343 343 329 328 324 332 330 325 341 323 191 171 184 184 151 115 93 124 133 134 131 145 162 155 148 161 162 160 152 138 135 141 136 141 141 127 115 106 93 79 75 85 86 83 83 78 69 59 55 49 56
239 69 158 209 183 112 241 173 231 212 160 152 153 124 159 253 210 126 163 107 250 259 226 172 200 196 197 206 100 87 92 89 83 92 105 95 73 62 96 84 22 313 295 304 332 337 334 333 327 320 326 316 322 325 330 318 254 177 188 169 127 121 119 102 103 102 114 157 172 149 158 168 172 175 160 150 153 147 145 152 145 141 120 117 109 90 89 76 69 67 63 63 60 58 50 35 39
85 65 213 169 121 56 217 193 151 136 153 111 115 132 215 63 76 128 147 188 232 210 235 216 199 171 167 173 174 103 107 112 104 108 116 119 118 103 23 349 329 317 323 7 343 329 328 323 314 301 310 291 284 269 292 292 263 192 185 127 111 106 107 101 89 81 98 99 120 155 166 169 173 183 182 165 146 151 154 164 153 138 124 125 118 108 89 79 66 61 56 57 51 56 51 35 31
81 322 330 205 198 146 227 167 205 141 122 129 148 221 74 125 242 195 172 202 230 267 257 231 175 156 147 117 131 118 125 126 132 133 133 117 107 85 70 9 19 9 347 334 329 318 314 318 316 308 310 292 297 97 73 66 51 67 64 86 100 101 97 91 83 78 69 68 68 43 164 174 178 183 179 171 141 145 147 133 96 83 103 97 95 93 85 85 69 63 59 60 59 60 50 33 35
105 169 326 245 189 217 171 182 150 178 120 204 203 78 174 143 214 128 203 249 273 337 34 114 109 110 123 123 140 143 142 142 139 127 143 143 140 135 140 75 54 352 332 330 329 315 329 329 321 308 296 266 87 70 84 68 66 73 72 78 75 71 91 93 79 76 73 67 55 69 17 89 85 121 117 116 118 110 84 64 77 86 72 58 57 76 82 71 70 69 71 63 68 63 61 44 43
86 73 220 262 134 249 291 41 160 177 186 131 115 139 232 175 188 89 250 216 113 68 87 94 105 104 99 122 135 130 123 111 116 112 69 64 118 120 27 92 17 10 351 318 320 337 339 326 316 342 344 95 87 82 81 79 74 78 75 75 68 16 84 77 84 72 67 59 44 49 52 77 92 75 62 82 77 78 68 88 90 74 74 70 77 67 78 76 69 68 67 73 71 65 54 45 54
149 186 135 332 301 334 343 331 263 223 244 154 106 241 290 254 267 238 219 184 171 122 88 107 110 111 132 144 148 147 146 149 143 129 142 31 49 81 52 57 331 6 320 315 324 335 322 318 343 3 6 33 70 81 76 86 73 78 76 80 82 52 61 67 87 73 69 69 62 53 52 71 80 94 89 55 95 83 82 68 66 73 62 59 77 76 79 81 77 71 68 74 75 68 60 37 63
149 127 138 152 219 353 316 198 258 244 242 203 193 257 212 347 134 273 340 186 140 110 117 117 130 143 147 145 147 154 149 165 170 153 87 60 68 110 92 46 2 305 311 330 328 320 326 348 14 12 37 35 57 83 70 90 78 78 68 74 82 65 58 44 69 78 68 64 61 63 60 58 75 79 84 92 80 81 71 71 70 67 65 48 67 81 71 79 77 72 67 73 80 77 65 52 69
46 112 17 338 336 268 229 317 272 104 278 176 187 240 235 309 104 230 206 181 165 140 149 150 148 151 153 147 150 159 160 185 157 141 151 141 158 126 145 225 228 308 334 333 336 335 355 3 9 10 42 52 64 68 73 81 71 70 58 32 77 60 53 65 64 58 63 70 63 68 62 62 75 74 80 76 78 77 73 74 70 74 68 60 60 83 85 81 78 71 70 67 70 82 81 67 65
111 133 290 297 350 342 176 204 237 157 248 151 161 331 291 180 230 253 218 141 159 147 159 169 169 171 159 151 144 157 177 172 159 161 188 186 154 169 167 275 272 269 337 329 337 5 16 16 19 21 40 44 50 71 76 71 69 54 69 37 61 66 48 59 75 70 64 66 65 69 70 70 69 87 82 83 87 84 84 84 79 74 80 81 71 70 86 86 87 80 65 74 69 70 75 74 73
123 37 99 334 356 324 306 249 345 154 244 156 169 272 265 254 242 280 151 146 126 135 177 191 190 184 182 173 175 182 187 149 183 199 190 186 190 193 173 231 282 266 288 352 17 43 24 22 33 46 32 56 61 68 53 72 70 55 78 63 52 53 61 82 64 62 63 72 68 69 77 70 70 78 96 92 90 92 85 79 81 73 66 68 58 52 57 61 77 78 69 69 60 70 73 73 83
168 257 63 203 8 272 276 92 150 152 208 176 83 206 282 273 291 237 176 162 159 184 198 197 195 195 195 196 188 192 214 213 196 195 211 204 204 200 188 222 220 231 120 75 56 73 56 38 34 57 53 68 74 76 67 65 79 71 71 74 65 56 40 64 71 70 64 78 75 67 71 77 74 75 82 102 95 95 96 88 76 78 82 79 74 58 71 59 58 74 79 85 80 77 77 73 82
17 47 283 326 161 279 294 261 165 168 332 352 108 284 247 266 264 194 184 176 174 192 199 203 201 198 199 198 199 199 213 235 225 216 205 197 185 169 212 220 210 119 125 103 88 76 67 52 55 81 68 72 72 78 85 73 74 75 70 58 67 58 57 73 56 54 68 77 71 66 58 70 71 71 74 87 96 90 92 92 92 90 81 80 79 77 74 75 76 80 62 86 100 88 87 80 81
352 139 267 258 92 263 337 233 254 215 121 356 169 219 326 305 301 295 176 174 189 198 213 213 208 204 199 199 197 196 194 224 237 219 209 196 206 201 203 208 168 151 125 121 111 98 84 80 71 80 86 79 78 85 90 87 80 77 75 68 66 60 56 65 60 46 61 64 61 63 55 65 69 69 74 81 97 95 93 93 90 88 87 87 86 84 75 70 75 88 68 50 81 102 94 93 83
283 18 222 204 187 254 249 305 260 234 143 202 271 211 234 227 302 117 201 186 182 216 224 221 213 207 203 193 196 192 195 193 201 204 207 206 205 220 230 176 136 119 120 116 110 109 110 100 85 91 99 98 92 86 92 88 87 83 80 75 69 61 47 57 63 57 60 60 62 64 58 65 70 73 75 84 89 88 89 91 87 79 80 81 79 77 76 64 59 81 85 52 52 88 93 94 92
206 196 252 284 252 204 245 332 247 121 347 183 223 242 265 268 258 197 205 196 196 222 221 216 212 209 202 202 199 199 197 200 208 205 197 199 200 206 204 172 127 106 112 112 108 103 99 97 96 92 107 114 109 97 90 95 91 82 77 79 71 66 57 48 58 57 54 60 59 63 62 63 68 77 84 90 95 95 92 89 87 84 87 89 86 77 69 72 77 72 92 88 67 64 85 83 98
194 174 186 170 181 227 210 239 275 180 195 231 201 220 242 259 272 243 212 197 206 228 238 244 216 209 207 205 205 201 201 209 212 203 199 199 194 200 198 145 119 111 114 113 116 118 116 110 105 109 104 112 114 110 108 99 95 97 99 88 74 59 44 59 49 50 52 55 48 58 61 65 65 70 73 82 86 88 92 87 88 85 86 90 87 83 83 80 93 94 85 98 93 76 58 63 77
113 95 117 205 205 281 285 273 266 302 12 235 226 235 244 255 250 259 208 198 235 245 242 233 221 208 207 208 206 201 200 198 202 192 192 196 199 197 212 148 137 125 118 129 129 138 139 135 131 126 127 121 122 126 117 116 116 109 81 80 97 56 62 65 58 50 50 49 51 56 55 55 59 70 75 87 95 93 90 93 91 79 85 90 91 87 93 95 88 102 99 73 97 97 55 14 16
150 124 175 256 156 243 235 247 359 332 170 291 267 255 253 250 260 261 211 169 229 226 230 236 226 215 212 204 202 200 190 138 146 159 206 213 195 180 172 159 152 144 154 145 153 154 142 137 128 131 135 126 106 108 116 98 78 87 114 110 103 87 74 63 66 51 54 49 52 54 56 56 63 67 71 86 92 99 103 96 91 97 95 91 89 94 89 90 100 101 113 82 31 96 75 2 328
76 186 203 268 267 246 281 256 304 274 104 258 279 268 258 253 253 268 238 218 232 224 216 223 216 215 214 204 197 181 170 188 173 188 188 191 185 168 169 170 167 157 153 155 155 148 139 135 138 145 134 124 104 87 102 101 93 83 91 97 82 95 65 73 79 72 64 69 48 45 46 52 67 68 69 76 91 90 95 99 94 93 87 101 102 85 85 82 83 93 102 121 107 66 94 33 16
174 117 158 227 232 134 286 300 355 349 165 260 340 302 275 271 263 254 256 229 235 236 222 232 217 216 210 200 188 188 188 173 185 183 183 187 181 170 173 173 163 147 149 147 158 152 138 142 143 131 125 114 108 100 100 93 91 91 80 85 67 62 104 87 80 72 71 51 51 45 35 50 58 73 66 76 82 79 87 94 96 85 79 69 98 101 86 79 75 82 92 96 121 94 53 37 16
237 197 200 212 191 234 187 248 314 313 338 39 306 292 280 232 251 258 252 257 249 257 244 253 243 233 217 196 200 191 183 179 174 175 183 181 180 178 179 175 162 163 168 167 164 162 148 148 139 130 126 120 111 114 116 119 110 93 96 89 88 91 72 77 85 60 36 56 65 49 39 37 55 69 66 70 82 85 77 80 85 85 82 65 78 88 82 84 73 69 70 81 71 125 99 109 27
269 226 198 212 209 223 267 333 360 4 326 349 55 312 277 274 250 250 268 331 281 254 227 243 234 217 186 191 196 175 188 182 175 178 180 179 177 169 178 176 174 173 175 172 160 149 142 142 133 131 122 123 128 128 135 134 137 133 130 120 115 104 104 101 103 118 112 81 80 53 49 40 50 65 62 68 75 84 84 80 82 82 74 65 65 84 94 83 66 69 43 94 84 61 125 118 91
204 270 196 209 211 212 187 180 85 297 246 296 26 210 283 292 248 231 253 245 257 261 229 254 236 215 202 201 181 181 176 172 180 174 169 171 180 173 181 184 182 179 175 156 146 143 143 147 149 144 142 136 136 142 150 143 141 138 140 143 143 143 130 63 42 38 86 91 82 72 65 50 44 73 67 70 78 81 87 81 82 83 84 80 74 80 71 66 64 58 44 69 70 107 114 100 108
229 253 161 171 161 183 205 162 186 237 262 296 57 116 275 294 254 214 223 233 252 278 269 249 227 214 210 199 184 180 178 178 176 178 177 182 181 180 184 184 181 182 161 153 150 145 151 153 151 149 143 142 147 153 160 163 154 145 119 108 109 123 136 135 124 99 65 92 88 77 74 63 55 56 80 73 74 80 86 82 83 86 83 73 79 74 81 72 73 53 58 63 62 52 75 111 105
219 244 140 155 180 191 130 144 177 250 24 285 238 16 307 252 282 329 86 231 268 256 256 257 215 214 207 197 189 187 183 181 174 172 181 183 185 186 181 180 180 167 164 161 160 160 152 153 148 141 146 147 154 162 160 149 136 134 131 127 107 65 96 113 113 99 103 95 96 76 80 75 70 59 61 76 69 77 82 93 91 88 87 81 83 83 76 74 77 81 68 62 68 53 53 75 96
252 120 86 81 76 66 95 88 100 323 30 256 185 178 215 277 196 183 352 181 252 247 249 277 216 202 199 196 190 182 175 177 185 183 180 184 185 182 177 166 167 175 169 160 156 152 156 153 152 153 155 157 157 153 141 126 129 131 129 128 125 122 114 105 116 119 122 122 107 100 90 83 74 70 58 60 75 73 86 86 88 91 91 90 88 95 97 88 84 83 83 89 87 86 61 74 92
132 87 71 30 43 28 21 62 76 39 260 250 181 195 158 281 278 181 141 208 210 248 305 290 303 228 204 199 184 179 179 178 180 182 186 183 178 172 169 173 175 168 166 159 157 159 158 158 159 166 165 155 156 152 142 144 141 147 140 143 139 137 142 139 134 127 132 127 121 113 101 90 71 77 69 60 65 73 77 77 87 84 85 89 92 92 92 96 91 88 83 78 73 85 85 89 85
135 103 123 64 345 13 33 344 34 147 263 203 192 184 178 218 288 275 246 281 229 197 220 255 255 218 203 195 194 186 177 176 173 174 179 168 159 178 180 179 175 171 165 164 164 159 158 163 161 161 159 160 155 148 141 148 149 145 144 145 145 147 148 153 149 149 158 145 139 128 117 101 86 78 79 84 71 66 86 78 75 79 80 85 83 88 89 91 91 87 80 81 82 76 81 83 82
85 102 97 136 246 36 303 24 253 192 244 321 6 130 351 239 238 248 268 268 260 216 218 229 231 233 207 195 187 180 177 173 177 178 172 175 178 179 186 182 173 174 178 172 168 165 163 166 167 165 169 163 160 155 153 153 147 147 146 144 144 147 148 151 150 148 159 149 147 139 140 132 134 118 122 112 104 92 94 92 86 89 86 81 94 90 89 89 90 90 92 90 89 85 86 91 90
139 154 154 137 107 212 257 264 276 308 297 274 282 29 252 319 298 229 252 252 250 228 223 233 218 218 202 192 178 173 179 184 184 178 179 181 181 182 185 180 179 177 177 176 171 170 170 170 171 173 170 164 154 151 151 149 153 149 148 149 153 153 152 153 157 153 159 155 156 154 156 155 155 153 149 141 137 105 90 98 102 95 93 94 95 94 92 89 92 95 97 96 93 98 95 93 97
200 117 163 183 159 158 210 199 215 226 227 296 274 129 233 124 242 253 253 278 285 261 254 250 243 237 212 177 163 162 173 188 183 184 186 184 184 180 182 183 181 180 179 176 174 174 170 171 172 172 161 172 160 159 154 155 151 149 148 150 154 155 153 152 155 156 156 156 161 153 155 156 149 156 148 140 121 114 119 114 113 110 108 101 99 100 92 89 91 92 90 95 90 99 100 104 104
216 172 54 104 214 149 228 196 181 260 324 326 206 210 196 194 258 284 233 285 275 277 266 222 240 202 154 152 169 180 185 186 187 188 189 191 185 180 181 183 182 180 182 177 176 175 175 175 174 175 169 170 171 159 164 159 158 150 147 151 157 150 142 136 139 145 153 156 157 156 156 153 147 135 126 122 125 130 132 123 116 115 114 112 110 110 104 101 102 104 100 100 99 90 105 97 101
203 114 204 208 158 128 84 30 89 117 33 252 139 272 276 303 279 252 259 241 264 321 263 254 231 227 182 179 181 184 188 188 189 191 191 187 182 187 185 182 180 180 182 184 181 178 177 170 171 169 168 170 174 172 162 160 154 150 154 153 154 151 153 158 161 161 157 150 147 148 145 145 134 131 131 128 130 118 115 118 118 116 117 121 112 105 106 107 106 105 110 110 107 104 97 99 97
101 188 226 129 104 110 151 236 344 111 234 272 148 240 278 77 277 3 350 259 257 250 235 228 224 203 202 199 190 188 190 193 193 193 189 186 184 183 186 188 186 185 182 180 183 178 176 172 171 167 168 173 181 169 162 160 157 157 156 158 161 162 162 160 155 154 149 143 142 137 131 137 147 140 131 131 127 127 123 122 123 125 127 117 114 109 111 113 109 97 102 100 118 117 106 93 88
149 192 191 136 235 243 275 91 245 206 236 276 272 250 261 194 249 59 256 225 245 240 224 226 228 212 216 209 205 199 186 181 187 191 187 188 189 189 186 187 185 182 181 181 175 173 174 174 177 173 174 177 172 169 165 164 165 161 165 164 163 159 154 148 145 145 149 151 154 157 155 142 127 132 133 136 136 138 140 135 137 136 124 115 111 114 116 113 114 114 116 118 117 110 103 96 85
37 74 125 40 99 169 141 199 183 113 263 53 278 61 258 172 226 191 235 219 225 234 206 226 221 207 205 205 196 191 190 192 191 193 196 192 190 188 184 180 182 183 181 183 178 176 181 178 174 178 169 164 163 168 168 169 174 163 162 158 162 160 157 157 157 158 163 165 163 156 148 146 151 137 137 137 140 148 149 145 148 137 124 119 116 108 124 123 118 120 132 122 118 110 99 98 93
165 144 186 170 52 255 112 351 153 179 191 202 283 290 264 253 210 189 217 220 220 208 217 226 220 209 204 206 195 191 193 192 193 194 191 186 185 184 184 184 180 174 177 179 184 186 185 179 182 177 170 169 174 177 174 176 167 170 162 168 166 162 161 155 157 168 163 163 159 153 152 146 132 149 149 152 155 157 154 152 147 140 134 134 132 133 136 131 126 126 109 119 116 109 109 104 104
182 176 193 183 150 149 169 241 74 139 159 237 148 256 244 267 180 207 218 224 217 220 217 228 224 200 198 206 204 192 192 200 193 191 183 181 180 180 178 176 176 176 184 188 190 184 188 190 184 175 172 176 174 177 180 174 176 166 171 168 168 164 160 160 162 168 166 164 163 158 152 146 158 156 156 158 154 154 157 157 147 137 135 139 131 135 139 138 136 130 121 126 126 121 119 126 123